Lapse_Rate
5.3 5.5 5.4 5.3 5.3 5.2 5.0 5.1 5.2 5.0 5.0 5.0 5.1 4.7 5.0 4.9 4.6 4.1 4.5 4.6 4.8 5.4 5.6 5.9 6.2 6.4 6.7 6.7 6.8 7.0 7.0 7.0 7.0
5.2 5.2 5.5 5.4 5.3 5.2 5.1 5.1 5.3 5.4 5.3 5.2 5.1 5.1 5.1 4.9 4.7 4.1 4.4 4.5 4.8 5.4 5.6 5.8 6.1 6.3 6.7 6.8 6.9 6.9 7.1 7.1 7.0
5.0 4.9 5.4 5.6 5.4 5.3 5.2 5.1 5.2 5.4 5.5 5.4 5.4 5.2 5.1 5.0 4.7 4.5 4.4 4.4 4.9 5.5 5.6 5.8 6.0 6.3 6.6 6.7 7.0 7.0 7.2 7.2 7.1
5.1 5.1 5.2 5.7 5.5 5.4 5.3 5.2 5.2 5.3 5.5 5.4 5.5 5.4 5.2 5.0 4.8 4.7 4.7 4.6 5.0 5.5 5.6 5.8 6.0 6.3 6.4 6.5 6.9 7.0 7.2 7.2 7.2
5.3 5.2 5.5 5.7 5.7 5.6 5.5 5.3 5.3 5.3 5.2 5.5 5.6 5.5 5.4 5.2 5.2 5.0 4.8 5.0 5.2 5.5 5.7 5.8 6.0 6.1 6.5 6.5 6.9 7.1 7.2 7.2 7.2
5.7 5.4 5.4 5.9 5.8 5.7 5.6 5.5 5.5 5.6 5.3 5.3 5.5 5.5 5.3 5.3 5.4 5.3 5.2 5.2 5.4 5.5 5.6 5.8 5.9 6.1 6.3 6.4 6.6 7.0 7.1 7.3 7.2
5.7 5.8 5.7 6.1 6.1 6.0 5.8 5.7 5.6 5.7 5.8 5.6 5.6 5.6 5.4 5.3 5.5 5.4 5.2 5.8 5.6 5.5 5.6 5.8 5.9 6.0 6.3 6.4 6.6 6.8 7.0 7.2 7.2
5.7 5.8 5.9 6.0 6.3 6.1 5.9 5.9 5.8 5.7 6.0 6.1 5.7 5.7 5.7 5.5 5.5 5.4 5.3 5.6 5.7 5.5 5.6 5.7 5.9 6.1 6.2 6.4 6.6 6.7 6.9 7.0 7.2
5.8 5.6 5.8 6.0 6.3 6.2 6.2 6.1 6.2 5.9 5.9 6.2 6.2 5.8 5.7 5.8 5.5 5.5 5.4 5.7 5.6 5.4 5.6 5.7 6.0 6.1 6.2 6.4 6.5 6.7 6.9 7.1 7.1
5.9 5.9 6.1 6.2 6.3 6.3 6.3 6.4 6.4 6.3 6.1 6.1 6.3 6.5 6.0 5.8 5.6 5.8 5.5 5.5 5.6 5.5 5.6 5.7 6.0 6.1 6.2 6.3 6.4 6.5 6.9 7.0 7.2
6.0 6.1 6.2 6.4 6.3 6.2 6.3 6.4 6.4 6.4 6.2 6.1 6.2 6.4 6.2 6.1 5.6 5.7 5.6 5.5 5.6 5.6 5.6 5.7 6.0 6.0 6.1 6.1 6.3 6.5 6.6 6.9 7.1
6.1 6.2 6.3 6.4 6.4 6.2 6.3 6.4 6.5 6.4 6.3 6.3 6.2 6.2 6.1 6.0 5.8 5.8 5.7 5.6 5.7 5.7 5.7 5.5 5.9 6.0 6.1 6.1 6.3 6.4 6.5 6.6 6.8
5.9 6.3 6.5 6.5 6.5 6.2 6.3 6.5 6.5 6.4 6.2 6.2 6.2 6.3 6.0 6.1 5.9 5.8 5.8 5.8 5.8 5.9 5.7 5.3 5.7 5.9 6.0 6.1 6.2 6.3 6.4 6.5 6.7
6.1 6.3 6.5 6.6 6.6 6.5 6.3 6.4 6.5 6.5 6.3 6.1 6.2 6.2 6.1 6.1 6.2 6.0 5.8 5.8 5.6 5.7 5.5 5.1 5.1 5.9 5.9 5.9 6.0 6.2 6.2 6.3 6.4
5.8 6.4 6.4 6.5 6.8 6.7 6.6 6.4 6.5 6.4 6.3 6.1 6.1 6.2 6.1 6.0 6.2 6.0 5.1 5.0 5.2 5.1 4.6 4.5 5.1 5.5 5.9 5.9 5.8 6.0 6.1 6.2 6.2
5.8 6.1 6.4 6.1 6.5 6.8 6.8 6.4 6.4 6.4 6.4 6.3 6.2 6.2 6.2 6.0 5.9 5.7 5.4 4.5 4.8 5.0 4.3 4.2 4.4 5.0 5.3 6.0 5.7 5.9 6.0 6.0 6.0
5.7 5.9 6.2 6.4 6.3 6.6 6.8 6.7 6.7 6.5 6.5 6.4 6.2 6.1 6.2 6.1 5.9 5.9 5.4 4.8 4.8 4.7 4.5 4.8 4.8 5.0 5.0 5.6 5.9 5.7 5.8 5.9 5.9
5.9 5.7 5.9 6.4 6.3 6.3 6.6 6.6 6.5 6.7 6.6 6.5 6.2 6.3 6.4 6.3 6.0 5.9 5.6 5.1 4.5 4.9 5.0 4.9 5.5 5.1 5.1 5.5 5.6 5.4 5.5 5.6 5.6
6.1 6.0 6.1 5.8 6.0 6.2 6.4 6.5 6.5 6.4 6.3 6.4 6.3 6.2 6.4 6.0 6.0 6.0 5.7 5.2 5.7 5.4 5.4 5.1 5.0 5.1 5.2 5.4 5.4 5.3 5.2 5.2 5.1
6.1 6.1 6.1 6.2 5.9 5.8 5.7 6.4 6.8 6.7 6.6 6.6 6.3 6.3 6.3 6.2 6.4 5.9 5.9 5.7 5.4 5.7 5.6 5.0 5.0 5.2 5.1 5.1 5.2 5.0 5.0 4.7 4.7
Wind_Speed
19 19 18 19 18 16 14 13 13 12 11 9 8 11 20 19 17 18 16 18 18 18 18 19 18 20 19 22 22 20 19 18 17
19 20 18 18 16 16 14 13 13 12 10 12 13 18 23 19 15 17 17 19 17 17 17 17 18 19 21 24 22 23 22 24 23
21 21 19 18 16 15 14 13 12 12 10 11 14 18 19 17 16 18 18 18 16 17 17 19 18 17 25 22 21 21 22 22 22
21 21 20 17 15 14 13 12 11 10 9 11 13 14 17 17 16 16 15 15 17 17 18 19 17 20 25 21 18 20 19 19 22
23 22 21 20 16 14 12 11 11 9 9 9 11 13 16 16 15 15 16 16 17 16 15 16 17 22 24 21 18 16 18 17 19
23 18 21 20 20 16 12 11 9 9 7 8 9 11 14 14 14 15 17 17 15 14 16 17 18 21 24 20 16 16 17 17 18
18 21 22 21 21 19 15 12 11 9 7 7 7 8 11 12 12 14 18 17 15 15 16 16 16 22 23 20 15 16 16 17 18
12 12 15 15 21 16 16 13 11 8 8 7 7 9 12 15 15 18 18 17 14 15 16 16 18 22 22 20 17 14 14 14 16
11 11 12 12 13 16 16 14 12 8 8 10 10 7 10 15 18 19 21 17 16 15 18 15 22 23 22 18 17 13 14 15 16
11 11 12 11 14 13 13 12 11 9 8 8 7 8 13 15 19 20 20 21 17 17 19 17 21 21 21 18 16 14 14 14 15
12 10 10 11 15 17 14 12 9 8 8 5 7 7 15 18 17 20 20 22 19 17 19 19 21 21 21 16 15 15 14 14 15
16 11 9 12 15 17 14 10 10 4 6 4 9 10 13 14 15 18 19 21 20 18 19 19 22 21 21 16 15 15 14 14 14
16 9 8 13 14 14 8 4 4 4 4 4 4 6 12 12 14 15 19 18 16 19 18 21 23 22 23 19 16 15 15 14 14
17 12 12 15 11 8 7 3 3 4 4 4 4 4 5 9 10 13 14 17 19 18 19 22 21 21 19 22 18 18 16 16 14
16 12 13 15 6 5 6 6 3 3 5 3 4 2 4 6 7 11 12 14 17 16 17 19 20 21 19 20 20 19 18 16 15
17 10 10 13 10 9 10 4 6 2 4 4 3 3 3 3 3 6 9 10 13 15 15 17 17 18 20 19 21 20 19 18 17
17 11 10 11 8 10 11 9 3 2 8 4 3 3 1 1 3 3 5 6 11 11 14 17 18 16 17 20 20 21 20 19 18
21 18 13 13 11 10 11 12 14 4 4 6 4 3 4 3 1 3 5 5 5 9 13 16 19 20 20 22 21 21 20 20 19
22 21 16 14 11 13 11 10 12 10 9 2 1 3 5 4 2 2 2 5 8 7 10 14 18 20 22 23 24 24 23 20 20
19 19 15 14 12 13 14 13 12 11 10 8 3 2 2 2 3 4 4 2 4 6 11 15 16 19 22 23 25 28 27 24 22
Wind_Direction
136 131 129 123 123 123 118 111 107 102 96 80 87 128 133 129 117 111 106 97 103 103 98 98 102 102 101 99 103 105 100 106 98
142 138 131 128 129 130 127 120 111 105 88 72 93 116 128 124 113 111 108 109 108 106 102 102 108 113 103 94 95 95 94 90 90
149 142 138 137 139 139 134 127 119 116 101 82 100 126 128 120 111 109 113 113 112 106 106 110 116 114 105 99 97 97 93 94 90
153 147 142 143 145 144 143 137 127 121 108 93 104 130 132 121 122 118 118 119 116 114 117 117 109 117 107 103 102 103 99 95 95
155 153 151 148 147 146 145 143 137 132 126 103 104 130 137 121 120 124 125 127 125 120 119 122 114 113 108 103 105 103 106 108 104
155 158 157 154 150 153 154 150 147 143 142 124 111 133 125 126 131 129 132 131 130 126 130 130 124 115 109 110 112 113 114 111 110
163 165 166 162 157 157 159 161 159 157 158 145 126 129 141 143 137 139 140 132 136 134 139 133 130 125 116 116 113 113 113 114 109
158 165 167 164 161 154 161 168 167 174 169 175 156 141 159 154 146 153 145 140 142 146 147 144 140 129 124 124 118 121 117 120 120
168 172 173 168 169 154 169 176 182 186 190 185 167 158 168 166 154 161 151 145 149 152 150 143 142 131 123 122 121 127 126 120 113
177 178 173 179 171 160 171 181 190 197 203 194 198 169 179 178 165 162 159 151 156 159 158 151 145 135 129 130 132 139 138 135 133
184 181 179 180 176 175 179 181 191 214 210 207 202 180 176 177 174 164 165 159 160 168 165 161 153 141 132 139 144 148 146 141 137
185 180 184 183 174 179 188 185 186 205 228 176 177 160 158 159 166 175 169 164 165 175 172 168 155 150 140 146 151 153 154 150 150
186 182 185 182 182 176 176 169 171 200 192 172 169 154 139 154 173 177 168 166 174 178 182 166 165 159 149 153 160 160 159 157 155
185 186 189 179 191 172 180 172 152 168 200 170 157 170 149 163 172 168 178 172 175 175 187 178 171 165 164 156 164 165 167 166 163
190 185 188 180 181 169 179 165 148 172 160 136 121 155 136 158 165 178 179 176 172 178 184 181 177 172 172 165 165 169 172 172 173
190 189 184 188 188 181 187 155 156 158 143 106 69 40 104 155 171 179 174 174 171 173 175 168 172 183 175 176 170 173 177 177 180
192 188 188 187 189 180 188 170 140 138 173 148 131 157 64 221 185 177 183 174 159 168 178 174 175 185 179 181 180 177 181 184 186
195 192 191 185 186 190 193 188 180 158 185 197 160 141 199 141 238 224 188 180 175 182 185 184 183 189 189 184 185 183 186 191 191
200 194 193 192 189 191 192 200 187 178 182 207 183 132 144 166 174 245 229 192 193 189 188 188 191 189 193 190 190 189 192 197 200
199 197 192 192 194 193 192 193 193 194 187 189 147 141 134 131 137 186 184 199 194 193 192 190 192 192 198 199 198 196 197 199 206